Toledo, OH

11:33 AM EDT on April 24, 2018 (GMT -0400)
Toledo Express

Weather History for KTOL - January, 2012

Change the Weather History Date:

Wednesday, January 11, 2012

  Actual Average Record
Temperature  
Mean Temperature 38 °F 25 °F  
Max Temperature 49 °F 33 °F 68 °F (1890)
Min Temperature 26 °F 18 °F -14 °F (1979)
Degree Days  
Heating Degree Days 27 40  
Month to date heating degree days 343 431  
Since 1 July heating degree days 2369 2756  
Cooling Degree Days 0 0  
Month to date cooling degree days 0 0  
Year to date cooling degree days 0 0  
Moisture  
Dew Point 32 °F    
Average Humidity 73    
Maximum Humidity 100    
Minimum Humidity 46    
Precipitation  
Precipitation 0.16 in 0.07 in 0.76 in (2013)
Month to date precipitation 0.20 0.81  
Year to date precipitation 0.20 0.81  
Snow  
Snow 0.00 in 0.30 in - ()
Month to date snowfall 0.5 3.8  
Since 1 July snowfall 5.2 13.3  
Snow Depth 0.00 in    
Sea Level Pressure  
Sea Level Pressure 29.63 in    
Wind  
Wind Speed 7 mph (East)    
Max Wind Speed 15 mph    
Max Gust Speed 20 mph    
Visibility 5 miles    
Events Rain    
T = Trace of Precipitation, MM = Missing Value Source: NWS Daily Summary

Daily Weather History Graph

Daily Weather History Graph

Search for Another Location

Airport or City:

Astronomy

Jan. 11, 2012 Rise Set
Actual Time 8:01 AM EST 5:25 PM EST
Civil Twilight 7:30 AM EST 5:56 PM EST
Nautical Twilight 6:55 AM EST 6:30 PM EST
Astronomical Twilight 6:22 AM EST 7:03 PM EST
Moon 8:25 PM EST (1/11) 9:10 AM EST (1/11)
Length of Visible Light 10h 25m
Length of Day
9h 23m
Waning Gibbous, 93% of the Moon is Illuminated
Jan 11
Waning Gibbous
Jan 16
Last Quarter
Jan 23
New
Jan 30
First Quarter
Feb 7
Full

Hourly Weather History & Observations

Time (EST) Temp. Windchill Dew Point Humidity Pressure Visibility Wind Dir Wind Speed Gust Speed Precip Events Conditions
12:52 AM 27.0 °F 23.0 °F 25.0 °F 92% 29.90 in 7.0 mi South 3.5 mph - N/A   Clear
1:52 AM 32.0 °F 28.7 °F 28.0 °F 85% 29.87 in 9.0 mi South 3.5 mph - N/A   Clear
2:52 AM 33.1 °F 28.7 °F 28.0 °F 82% 29.86 in 9.0 mi South 4.6 mph - N/A   Clear
3:52 AM 30.9 °F 27.5 °F 26.1 °F 82% 29.83 in 9.0 mi SSE 3.5 mph - N/A   Clear
4:52 AM 32.0 °F 28.7 °F 27.0 °F 82% 29.82 in 9.0 mi South 3.5 mph - N/A   Clear
5:52 AM 30.0 °F - 26.1 °F 85% 29.80 in 7.0 mi Calm Calm - N/A   Clear
6:52 AM 27.0 °F - 25.0 °F 92% 29.79 in 5.0 mi Calm Calm - N/A   Clear
7:52 AM 27.0 °F - 24.1 °F 89% 29.78 in 5.0 mi Calm Calm - N/A   Clear
8:52 AM 27.0 °F - 25.0 °F 92% 29.79 in 4.0 mi Calm Calm - N/A   Clear
9:52 AM 35.1 °F 30.1 °F 30.0 °F 82% 29.78 in 6.0 mi NE 5.8 mph - N/A   Haze
10:52 AM 39.0 °F 36.8 °F 30.9 °F 73% 29.75 in 8.0 mi East 3.5 mph - N/A   Clear
11:52 AM 45.0 °F 40.6 °F 30.0 °F 56% 29.72 in 10.0 mi East 8.1 mph - N/A   Clear
12:52 PM 48.0 °F - 28.9 °F 48% 29.67 in 10.0 mi East 8.1 mph - N/A   Clear
1:52 PM 46.0 °F 41.4 °F 30.0 °F 54% 29.63 in 10.0 mi East 9.2 mph - N/A   Partly Cloudy
2:52 PM 43.0 °F 37.2 °F 30.9 °F 62% 29.58 in 10.0 mi ENE 10.4 mph - N/A   Overcast
3:52 PM 39.0 °F 31.8 °F 32.0 °F 76% 29.59 in 8.0 mi East 11.5 mph - 0.00 in Rain Light Rain
4:52 PM 37.9 °F 30.9 °F 34.0 °F 86% 29.58 in 4.0 mi ENE 10.4 mph - 0.03 in Rain Light Rain
5:52 PM 37.0 °F 27.7 °F 34.0 °F 89% 29.56 in 6.0 mi ENE 16.1 mph - 0.03 in Rain Light Rain
6:48 PM 37.4 °F 29.3 °F 35.6 °F 93% 29.53 in 6.0 mi ENE 12.7 mph - 0.04 in Rain Light Rain
6:52 PM 37.0 °F 28.9 °F 35.1 °F 93% 29.55 in 6.0 mi ENE 12.7 mph - 0.04 in Rain Light Rain
7:17 PM 37.4 °F 30.8 °F 35.6 °F 93% 29.53 in 2.0 mi ENE 9.2 mph - 0.01 in Rain Light Rain
7:35 PM 37.4 °F 29.8 °F 35.6 °F 93% 29.52 in 2.0 mi ENE 11.5 mph - 0.02 in   Overcast
7:52 PM 37.0 °F 28.5 °F 35.1 °F 93% 29.53 in 2.0 mi NE 13.8 mph - 0.03 in Rain Light Rain
8:10 PM 37.4 °F 29.3 °F 35.6 °F 93% 29.50 in 2.0 mi ENE 12.7 mph - 0.00 in Rain Light Rain
8:43 PM 37.4 °F 29.3 °F 35.6 °F 93% 29.50 in 2.5 mi ENE 12.7 mph - 0.01 in Rain Light Rain
8:52 PM 37.0 °F 28.9 °F 36.0 °F 96% 29.52 in 2.5 mi ENE 12.7 mph - 0.02 in Rain Light Rain
9:21 PM 37.4 °F 29.8 °F 35.6 °F 93% 29.49 in 3.0 mi ENE 11.5 mph - 0.01 in Rain Light Rain
9:52 PM 37.9 °F 30.5 °F 36.0 °F 93% 29.49 in 4.0 mi East 11.5 mph - 0.01 in   Overcast
10:16 PM 37.4 °F 29.8 °F 35.6 °F 93% 29.46 in 2.0 mi ENE 11.5 mph - N/A   Overcast
10:27 PM 37.4 °F 30.3 °F 35.6 °F 93% 29.45 in 1.8 mi ENE 10.4 mph - N/A   Overcast
10:52 PM 37.9 °F 32.7 °F 37.0 °F 97% 29.46 in 1.5 mi East 6.9 mph - N/A   Overcast
11:38 PM 37.4 °F 30.8 °F 37.4 °F 100% 29.44 in 1.2 mi ENE 9.2 mph - N/A   Overcast
11:52 PM 37.9 °F 32.1 °F 37.0 °F 97% 29.44 in 1.2 mi ENE 8.1 mph - N/A   Overcast